Meteo Giornale » Osservazioni meteo Italia » Bergamo-Orio Al Serio

ore: 07:50 - Osservazioni Meteo Bergamo-Orio Al Serio
Lat. 45° 40' N Lon. 9° 42' E Alt. 238 metri s.l.m.

molto_nuvoloso Europe/Rome

9 °C

Molto Nuvoloso

Temp. 24 Ore

9 °C

20 °C

Ovest/Nord-Ovest

11.1 Km/h

Dew point 7 °C

Umidità 87 %

Visibilità  10 Km

Il sole sorge alle ore 06:09

Il sole tramonta alle ore 18:43

Data e Ora Cielo e Fenomeni T °C DP °C Um. % Pres. hPa Vis. km Vento km/h
Oggi h: 07:50 molto_nuvoloso Molto Nuvoloso 9 7 87 1018 10 O/NO 11.1
Oggi h: 07:20 coperto_pioggia Pioggia Debole 9 7 87 1018 10 O 13
Oggi h: 06:50 coperto_pioggia Pioggia Debole 9 7 87 1018 10 NO 9.3
Oggi h: 06:20 coperto_pioggia Pioggia Debole 9 7 87 1018 10 NO 11.1
Oggi h: 05:50 coperto_pioggia Pioggia 9 7 87 1017 8 O/NO 13
Oggi h: 05:20 coperto_pioggia Pioggia Debole 9 7 87 1018 8 O/NO 13
Oggi h: 04:50 coperto_pioggia Pioggia Debole 9 7 87 1018 7 O 16.7
Oggi h: 04:20 coperto_pioggia Pioggia Debole 9 8 93 1018 7 O/NO 16.7
Oggi h: 03:50 coperto_pioggia Pioggia Debole 9 8 93 1018 7 O 22.2
Oggi h: 03:20 coperto_pioggia Pioggia Debole 10 9 93 1017 7 O 22.2
Oggi h: 03:50 coperto_pioggia Pioggia Debole 10 8 87 1017 7 O 22.2
Oggi h: 03:20 coperto_pioggia Pioggia Debole 10 9 93 1017 7 O 18.5
Oggi h: 01:50 coperto_pioggia Pioggia 10 9 93 1017 7 O 25.9
Oggi h: 01:20 coperto_pioggia Pioggia 12 11 93 1017 7 O 13
Oggi h: 00:50 coperto_pioggia Pioggia 12 11 93 1017 7 O 13
Oggi h: 00:20 nuvoloso Nuvoloso 13 11 87 1018 9 O 9.3
Ieri h: 23:50 coperto_pioggia Pioggia Debole 13 10 81 1018 9 O/NO 11.1
Ieri h: 23:20 nuvoloso Nuvoloso 13 10 81 1018 9 NO 9.3
Ieri h: 22:50 molto_nuvoloso Molto Nuvoloso 14 11 82 1018 9 SO 13
Ieri h: 22:20 nuvoloso Nuvoloso 14 11 82 1018 9 S 18.5
Ieri h: 21:50 nuvoloso Nuvoloso 16 11 72 1017 9 S/SE 7.4
Ieri h: 21:20 nuvoloso Nuvoloso 15 11 76 1017 9 E/NE 9.3
Ieri h: 20:50 nuvoloso Nuvoloso 16 11 72 1017 7 N 5.5
Ieri h: 20:20 nuvoloso Nuvoloso 16 11 72 1017 7 N 5.5
Ieri h: 19:50 nuvoloso Nuvoloso 15 11 76 1017 7 N 5.5
Ieri h: 19:20 nuvoloso Nuvoloso 16 11 72 1017 7 N 3.7
Ieri h: 18:50 nuvoloso Nuvoloso 17 11 67 1017 7 S 7.4
Ieri h: 18:20 sereno Sereno 18 11 63 1017 8 N 5.5
Ieri h: 17:50 sereno Sereno 19 11 59 1017 8 S/SE 11.1
Ieri h: 17:20 sereno Sereno 19 10 55 1016 10 S/SE 14.8
Ieri h: 16:50 sereno Sereno 20 10 52 1017 10 S/SE 13
Ieri h: 16:20 sereno Sereno 20 10 52 1017 10 S/SE 11.1
Ieri h: 15:50 sereno Sereno 20 10 52 1017 10 SE 9.3
Ieri h: 15:20 sereno Sereno 20 10 52 1018 10 SE 13
Ieri h: 14:50 sereno Sereno 20 10 52 1018 10 SE 9.3
Ieri h: 14:20 sereno Sereno 20 9 49 1019 10 S 9.3
Ieri h: 13:20 sereno Sereno 20 10 52 1020 10 E/SE 9.3
Ieri h: 12:50 sereno Sereno 20 10 52 1021 10 S/SE 9.3
Ieri h: 12:20 sereno Sereno 19 10 55 1021 10 N 7.4
Ieri h: 11:50 sereno Sereno 19 9 52 1022 10 E 7.4
Ieri h: 11:20 poco_nuvoloso Poco Nuvoloso 18 9 55 1022 10 N 7.4
Ieri h: 10:50 poco_nuvoloso Poco Nuvoloso 18 8 51 1022 10 N 5.5
Ieri h: 10:20 poco_nuvoloso Poco Nuvoloso 17 9 59 1023 10 N 3.7
Ieri h: 09:50 poco_nuvoloso Poco Nuvoloso 16 8 58 1023 10 N 1.8
Ieri h: 09:20 poco_nuvoloso Poco Nuvoloso 15 8 62 1023 10 N 5.5
Ieri h: 08:50 poco_nuvoloso Poco Nuvoloso 14 8 67 1023 10 N 5.5